Year,Month,Day,Hour,Minute,Value (Times are PST for temperature in C)
2011,10,24,00,00,6.20
2011,10,24,00,01,6.20
2011,10,24,00,02,6.20
2011,10,24,00,03,6.20
2011,10,24,00,04,6.20
2011,10,24,00,05,6.30
2011,10,24,00,06,6.30
2011,10,24,00,07,6.30
2011,10,24,00,08,6.20
2011,10,24,00,09,6.10
2011,10,24,00,10,6.10
2011,10,24,00,11,6.00
2011,10,24,00,12,6.00
2011,10,24,00,13,5.90
2011,10,24,00,14,5.90
2011,10,24,00,15,5.80
2011,10,24,00,16,5.80
2011,10,24,00,17,5.70
2011,10,24,00,18,5.70
2011,10,24,00,19,5.70
2011,10,24,00,20,5.60
2011,10,24,00,21,5.50
2011,10,24,00,22,5.50
2011,10,24,00,23,5.40
2011,10,24,00,24,5.40
2011,10,24,00,25,5.40
2011,10,24,00,26,5.40
2011,10,24,00,27,5.40
2011,10,24,00,28,5.30
2011,10,24,00,29,5.30
2011,10,24,00,30,5.30
2011,10,24,00,31,5.30
2011,10,24,00,32,5.30
2011,10,24,00,33,5.20
2011,10,24,00,34,5.20
2011,10,24,00,35,5.20
2011,10,24,00,36,5.20
2011,10,24,00,37,5.20
2011,10,24,00,38,5.20
2011,10,24,00,39,5.20
2011,10,24,00,40,5.10
2011,10,24,00,41,5.00
2011,10,24,00,42,4.90
2011,10,24,00,43,4.90
2011,10,24,00,44,4.80
2011,10,24,00,45,4.80
2011,10,24,00,46,4.80
2011,10,24,00,47,4.80
2011,10,24,00,48,4.70
2011,10,24,00,49,4.60
2011,10,24,00,50,4.60
2011,10,24,00,51,4.60
2011,10,24,00,52,4.60
2011,10,24,00,53,4.60
2011,10,24,00,54,4.60
2011,10,24,00,55,4.60
2011,10,24,00,56,4.60
2011,10,24,00,57,4.60
2011,10,24,00,58,4.50
2011,10,24,00,59,4.50
2011,10,24,01,00,4.40
2011,10,24,01,01,4.40
2011,10,24,01,02,4.40
2011,10,24,01,03,4.40
2011,10,24,01,04,4.50
2011,10,24,01,05,4.60
2011,10,24,01,06,4.60
2011,10,24,01,07,4.60
2011,10,24,01,08,4.60
2011,10,24,01,09,4.60
2011,10,24,01,10,4.60
2011,10,24,01,11,4.60
2011,10,24,01,12,4.60
2011,10,24,01,13,4.60
2011,10,24,01,14,4.70
2011,10,24,01,15,4.70
2011,10,24,01,16,4.70
2011,10,24,01,17,4.70
2011,10,24,01,18,4.60
2011,10,24,01,19,4.60
2011,10,24,01,20,4.50
2011,10,24,01,21,4.60
2011,10,24,01,22,4.60
2011,10,24,01,23,4.70
2011,10,24,01,24,4.70
2011,10,24,01,25,4.60
2011,10,24,01,26,4.60
2011,10,24,01,27,4.50
2011,10,24,01,28,4.40
2011,10,24,01,29,4.40
2011,10,24,01,30,4.30
2011,10,24,01,31,4.40
2011,10,24,01,32,4.40
2011,10,24,01,33,4.50
2011,10,24,01,34,4.50
2011,10,24,01,35,4.50
2011,10,24,01,36,4.50
2011,10,24,01,37,4.50
2011,10,24,01,38,4.40
2011,10,24,01,39,4.40
2011,10,24,01,40,4.30
2011,10,24,01,41,4.30
2011,10,24,01,42,4.30
2011,10,24,01,43,4.30
2011,10,24,01,44,4.30
2011,10,24,01,45,4.20
2011,10,24,01,46,4.20
2011,10,24,01,47,4.10
2011,10,24,01,48,4.10
2011,10,24,01,49,4.10
2011,10,24,01,50,4.10
2011,10,24,01,51,4.10
2011,10,24,01,52,4.10
2011,10,24,01,53,4.10
2011,10,24,01,54,4.10
2011,10,24,01,55,4.10
2011,10,24,01,56,4.10
2011,10,24,01,57,4.10
2011,10,24,01,58,4.10
2011,10,24,01,59,4.10
2011,10,24,02,00,4.10
2011,10,24,02,01,4.00
2011,10,24,02,02,4.00
2011,10,24,02,03,4.00
2011,10,24,02,04,3.90
2011,10,24,02,05,3.80
2011,10,24,02,06,3.80
2011,10,24,02,07,3.80
2011,10,24,02,08,3.70
2011,10,24,02,09,3.70
2011,10,24,02,10,3.70
2011,10,24,02,11,3.60
2011,10,24,02,12,3.60
2011,10,24,02,13,3.60
2011,10,24,02,14,3.60
2011,10,24,02,15,3.60
2011,10,24,02,16,3.60
2011,10,24,02,17,3.60
2011,10,24,02,18,3.50
2011,10,24,02,19,3.50
2011,10,24,02,20,3.50
2011,10,24,02,21,3.40
2011,10,24,02,22,3.40
2011,10,24,02,23,3.30
2011,10,24,02,24,3.30
2011,10,24,02,25,3.30
2011,10,24,02,26,3.30
2011,10,24,02,27,3.30
2011,10,24,02,28,3.30
2011,10,24,02,29,3.30
2011,10,24,02,30,3.40
2011,10,24,02,31,3.40
2011,10,24,02,32,3.50
2011,10,24,02,33,3.50
2011,10,24,02,34,3.60
2011,10,24,02,35,3.60
2011,10,24,02,36,3.60
2011,10,24,02,37,3.70
2011,10,24,02,38,3.70
2011,10,24,02,39,3.80
2011,10,24,02,40,3.90
2011,10,24,02,41,4.00
2011,10,24,02,42,4.10
2011,10,24,02,43,4.10
2011,10,24,02,44,4.20
2011,10,24,02,45,4.30
2011,10,24,02,46,4.30
2011,10,24,02,47,4.30
2011,10,24,02,48,4.40
2011,10,24,02,49,4.40
2011,10,24,02,50,4.40
2011,10,24,02,51,4.40
2011,10,24,02,52,4.40
2011,10,24,02,53,4.30
2011,10,24,02,54,4.30
2011,10,24,02,55,4.20
2011,10,24,02,56,4.10
2011,10,24,02,57,4.00
2011,10,24,02,58,3.90
2011,10,24,02,59,3.80
2011,10,24,03,00,3.80
2011,10,24,03,01,3.80
2011,10,24,03,02,3.80
2011,10,24,03,03,3.90
2011,10,24,03,04,3.80
2011,10,24,03,05,3.80
2011,10,24,03,06,3.80
2011,10,24,03,07,3.80
2011,10,24,03,08,3.80
2011,10,24,03,09,3.80
2011,10,24,03,10,3.80
2011,10,24,03,11,3.80
2011,10,24,03,12,3.80
2011,10,24,03,13,3.80
2011,10,24,03,14,3.80
2011,10,24,03,15,3.80
2011,10,24,03,16,3.70
2011,10,24,03,17,3.70
2011,10,24,03,18,3.70
2011,10,24,03,19,3.70
2011,10,24,03,20,3.70
2011,10,24,03,21,3.80
2011,10,24,03,22,3.90
2011,10,24,03,23,3.90
2011,10,24,03,24,4.00
2011,10,24,03,25,4.00
2011,10,24,03,26,4.00
2011,10,24,03,27,4.00
2011,10,24,03,28,4.00
2011,10,24,03,29,4.00
2011,10,24,03,30,4.00
2011,10,24,03,31,3.90
2011,10,24,03,32,3.90
2011,10,24,03,33,3.80
2011,10,24,03,34,3.80
2011,10,24,03,35,3.80
2011,10,24,03,36,3.80
2011,10,24,03,37,3.80
2011,10,24,03,38,3.80
2011,10,24,03,39,3.80
2011,10,24,03,40,3.80
2011,10,24,03,41,3.80
2011,10,24,03,42,3.80
2011,10,24,03,43,3.80
2011,10,24,03,44,3.70
2011,10,24,03,45,3.70
2011,10,24,03,46,3.70
2011,10,24,03,47,3.60
2011,10,24,03,48,3.60
2011,10,24,03,49,3.50
2011,10,24,03,50,3.40
2011,10,24,03,51,3.40
2011,10,24,03,52,3.40
2011,10,24,03,53,3.30
2011,10,24,03,54,3.30
2011,10,24,03,55,3.30
2011,10,24,03,56,3.30
2011,10,24,03,57,3.30
2011,10,24,03,58,3.30
2011,10,24,03,59,3.30
2011,10,24,04,00,3.40
2011,10,24,04,01,3.40
2011,10,24,04,02,3.40
2011,10,24,04,03,3.50
2011,10,24,04,04,3.50
2011,10,24,04,05,3.50
2011,10,24,04,06,3.50
2011,10,24,04,07,3.50
2011,10,24,04,08,3.50
2011,10,24,04,09,3.40
2011,10,24,04,10,3.40
2011,10,24,04,11,3.40
2011,10,24,04,12,3.30
2011,10,24,04,13,3.30
2011,10,24,04,14,3.20
2011,10,24,04,15,3.20
2011,10,24,04,16,3.10
2011,10,24,04,17,3.10
2011,10,24,04,18,3.10
2011,10,24,04,19,3.00
2011,10,24,04,20,3.00
2011,10,24,04,21,3.00
2011,10,24,04,22,3.00
2011,10,24,04,23,3.00
2011,10,24,04,24,2.90
2011,10,24,04,25,2.90
2011,10,24,04,26,2.90
2011,10,24,04,27,2.90
2011,10,24,04,28,2.80
2011,10,24,04,29,2.80
2011,10,24,04,30,2.80
2011,10,24,04,31,2.80
2011,10,24,04,32,2.80
2011,10,24,04,33,2.80
2011,10,24,04,34,2.80
2011,10,24,04,35,2.80
2011,10,24,04,36,2.80
2011,10,24,04,37,2.70
2011,10,24,04,38,2.70
2011,10,24,04,39,2.70
2011,10,24,04,40,2.70
2011,10,24,04,41,2.80
2011,10,24,04,42,2.80
2011,10,24,04,43,2.80
2011,10,24,04,44,2.80
2011,10,24,04,45,2.70
2011,10,24,04,46,2.70
2011,10,24,04,47,2.70
2011,10,24,04,48,2.70
2011,10,24,04,49,2.70
2011,10,24,04,50,2.70
2011,10,24,04,51,2.70
2011,10,24,04,52,2.70
2011,10,24,04,53,2.70
2011,10,24,04,54,2.70
2011,10,24,04,55,2.70
2011,10,24,04,56,2.70
2011,10,24,04,57,2.80
2011,10,24,04,58,2.80
2011,10,24,04,59,2.70
2011,10,24,05,00,2.70
2011,10,24,05,01,2.70
2011,10,24,05,02,2.60
2011,10,24,05,03,2.60
2011,10,24,05,04,2.60
2011,10,24,05,05,2.50
2011,10,24,05,06,2.40
2011,10,24,05,07,2.40
2011,10,24,05,08,2.40
2011,10,24,05,09,2.40
2011,10,24,05,10,2.40
2011,10,24,05,11,2.40
2011,10,24,05,12,2.40
2011,10,24,05,13,2.40
2011,10,24,05,14,2.40
2011,10,24,05,15,2.40
2011,10,24,05,16,2.40
2011,10,24,05,17,2.40
2011,10,24,05,18,2.40
2011,10,24,05,19,2.40
2011,10,24,05,20,2.40
2011,10,24,05,21,2.40
2011,10,24,05,22,2.40
2011,10,24,05,23,2.40
2011,10,24,05,24,2.40
2011,10,24,05,25,2.40
2011,10,24,05,26,2.40
2011,10,24,05,27,2.40
2011,10,24,05,28,2.40
2011,10,24,05,29,2.40
2011,10,24,05,30,2.40
2011,10,24,05,31,2.40
2011,10,24,05,32,2.40
2011,10,24,05,33,2.30
2011,10,24,05,34,2.30
2011,10,24,05,35,2.30
2011,10,24,05,36,2.20
2011,10,24,05,37,2.20
2011,10,24,05,38,2.10
2011,10,24,05,39,2.10
2011,10,24,05,40,2.10
2011,10,24,05,41,2.10
2011,10,24,05,42,2.00
2011,10,24,05,43,2.00
2011,10,24,05,44,2.00
2011,10,24,05,45,2.00
2011,10,24,05,46,2.00
2011,10,24,05,47,1.90
2011,10,24,05,48,1.90
2011,10,24,05,49,2.00
2011,10,24,05,50,2.00
2011,10,24,05,51,2.10
2011,10,24,05,52,2.10
2011,10,24,05,53,2.10
2011,10,24,05,54,2.10
2011,10,24,05,55,2.10
2011,10,24,05,56,2.00
2011,10,24,05,57,2.00
2011,10,24,05,58,2.00
2011,10,24,05,59,2.00
2011,10,24,06,00,2.00
2011,10,24,06,01,2.10
2011,10,24,06,02,2.10
2011,10,24,06,03,2.10
2011,10,24,06,04,2.10
2011,10,24,06,05,2.10
2011,10,24,06,06,2.10
2011,10,24,06,07,2.10
2011,10,24,06,08,2.10
2011,10,24,06,09,2.20
2011,10,24,06,10,2.20
2011,10,24,06,11,2.20
2011,10,24,06,12,2.20
2011,10,24,06,13,2.30
2011,10,24,06,14,2.30
2011,10,24,06,15,2.30
2011,10,24,06,16,2.40
2011,10,24,06,17,2.50
2011,10,24,06,18,2.60
2011,10,24,06,19,2.70
2011,10,24,06,20,2.80
2011,10,24,06,21,3.00
2011,10,24,06,22,3.00
2011,10,24,06,23,3.10
2011,10,24,06,24,3.20
2011,10,24,06,25,3.20
2011,10,24,06,26,3.20
2011,10,24,06,27,3.30
2011,10,24,06,28,3.40
2011,10,24,06,29,3.50
2011,10,24,06,30,3.60
2011,10,24,06,31,3.60
2011,10,24,06,32,3.50
2011,10,24,06,33,3.50
2011,10,24,06,34,3.40
2011,10,24,06,35,3.40
2011,10,24,06,36,3.40
2011,10,24,06,37,3.40
2011,10,24,06,38,3.40
2011,10,24,06,39,3.40
2011,10,24,06,40,3.40
2011,10,24,06,41,3.50
2011,10,24,06,42,3.50
2011,10,24,06,43,3.50
2011,10,24,06,44,3.50
2011,10,24,06,45,3.60
2011,10,24,06,46,3.60
2011,10,24,06,47,3.50
2011,10,24,06,48,3.50
2011,10,24,06,49,3.50
2011,10,24,06,50,3.50
2011,10,24,06,51,3.50
2011,10,24,06,52,3.40
2011,10,24,06,53,3.30
2011,10,24,06,54,3.20
2011,10,24,06,55,3.10
2011,10,24,06,56,3.00
2011,10,24,06,57,3.00
2011,10,24,06,58,2.90
2011,10,24,06,59,2.90
2011,10,24,07,00,2.80
2011,10,24,07,01,2.80
2011,10,24,07,02,2.70
2011,10,24,07,03,2.70
2011,10,24,07,04,2.70
2011,10,24,07,05,2.70
2011,10,24,07,06,2.70
2011,10,24,07,07,2.70
2011,10,24,07,08,2.70
2011,10,24,07,09,2.60
2011,10,24,07,10,2.60
2011,10,24,07,11,2.50
2011,10,24,07,12,2.50
2011,10,24,07,13,2.40
2011,10,24,07,14,2.40
2011,10,24,07,15,2.30
2011,10,24,07,16,2.20
2011,10,24,07,17,2.20
2011,10,24,07,18,2.20
2011,10,24,07,19,2.20
2011,10,24,07,20,2.20
2011,10,24,07,21,2.20
2011,10,24,07,22,2.20
2011,10,24,07,23,2.30
2011,10,24,07,24,2.30
2011,10,24,07,25,2.30
2011,10,24,07,26,2.30
2011,10,24,07,27,2.20
2011,10,24,07,28,2.20
2011,10,24,07,29,2.20
2011,10,24,07,30,2.20
2011,10,24,07,31,2.20
2011,10,24,07,32,2.10
2011,10,24,07,33,2.10
2011,10,24,07,34,2.00
2011,10,24,07,35,2.00
2011,10,24,07,36,1.90
2011,10,24,07,37,1.90
2011,10,24,07,38,1.90
2011,10,24,07,39,1.90
2011,10,24,07,40,1.90
2011,10,24,07,41,1.90
2011,10,24,07,42,2.00
2011,10,24,07,43,2.00
2011,10,24,07,44,2.00
2011,10,24,07,45,2.00
2011,10,24,07,46,2.00
2011,10,24,07,47,1.90
2011,10,24,07,48,1.80
2011,10,24,07,49,1.80
2011,10,24,07,50,1.70
2011,10,24,07,51,1.70
2011,10,24,07,52,1.70
2011,10,24,07,53,1.70
2011,10,24,07,54,1.70
2011,10,24,07,55,1.70
2011,10,24,07,56,1.70
2011,10,24,07,57,1.80
2011,10,24,07,58,1.80
2011,10,24,07,59,1.80
2011,10,24,08,00,1.80
2011,10,24,08,01,1.80
2011,10,24,08,02,1.80
2011,10,24,08,03,1.80
2011,10,24,08,04,1.80
2011,10,24,08,05,1.70
2011,10,24,08,06,1.70
2011,10,24,08,07,1.70
2011,10,24,08,08,1.70
2011,10,24,08,09,1.70
2011,10,24,08,10,1.70
2011,10,24,08,11,1.70
2011,10,24,08,12,1.70
2011,10,24,08,13,1.70
2011,10,24,08,14,1.80
2011,10,24,08,15,1.80
2011,10,24,08,16,1.80
2011,10,24,08,17,1.80
2011,10,24,08,18,1.90
2011,10,24,08,19,1.90
2011,10,24,08,20,2.00
2011,10,24,08,21,2.00
2011,10,24,08,22,2.10
2011,10,24,08,23,2.10
2011,10,24,08,24,2.20
2011,10,24,08,25,2.20
2011,10,24,08,26,2.20
2011,10,24,08,27,2.10
2011,10,24,08,28,2.10
2011,10,24,08,29,2.10
2011,10,24,08,30,2.20
2011,10,24,08,31,2.20
2011,10,24,08,32,2.30
2011,10,24,08,33,2.30
2011,10,24,08,34,2.40
2011,10,24,08,35,2.50
2011,10,24,08,36,2.60
2011,10,24,08,37,2.70
2011,10,24,08,38,2.80
2011,10,24,08,39,2.80
2011,10,24,08,40,2.80
2011,10,24,08,41,2.80
2011,10,24,08,42,2.80
2011,10,24,08,43,2.80
2011,10,24,08,44,2.80
2011,10,24,08,45,2.80
2011,10,24,08,46,2.90
2011,10,24,08,47,2.90
2011,10,24,08,48,3.00
2011,10,24,08,49,3.10
2011,10,24,08,50,3.10
2011,10,24,08,51,3.20
2011,10,24,08,52,3.20
2011,10,24,08,53,3.30
2011,10,24,08,54,3.30
2011,10,24,08,55,3.30
2011,10,24,08,56,3.40
2011,10,24,08,57,3.50
2011,10,24,08,58,3.60
2011,10,24,08,59,3.70
2011,10,24,09,00,3.80
2011,10,24,09,01,3.80
2011,10,24,09,02,3.80
2011,10,24,09,03,3.90
2011,10,24,09,04,4.00
2011,10,24,09,05,4.10
2011,10,24,09,06,4.20
2011,10,24,09,07,4.20
2011,10,24,09,08,4.20
2011,10,24,09,09,4.30
2011,10,24,09,10,4.30
2011,10,24,09,11,4.40
2011,10,24,09,12,4.40
2011,10,24,09,13,4.50
2011,10,24,09,14,4.50
2011,10,24,09,15,4.60
2011,10,24,09,16,4.60
2011,10,24,09,17,4.60
2011,10,24,09,18,4.70
2011,10,24,09,19,4.70
2011,10,24,09,20,4.80
2011,10,24,09,21,4.80
2011,10,24,09,22,4.90
2011,10,24,09,23,5.00
2011,10,24,09,24,5.00
2011,10,24,09,25,5.10
2011,10,24,09,26,5.10
2011,10,24,09,27,5.20
2011,10,24,09,28,5.20
2011,10,24,09,29,5.20
2011,10,24,09,30,5.30
2011,10,24,09,31,5.30
2011,10,24,09,32,5.40
2011,10,24,09,33,5.40
2011,10,24,09,34,5.40
2011,10,24,09,35,5.40
2011,10,24,09,36,5.50
2011,10,24,09,37,5.50
2011,10,24,09,38,5.50
2011,10,24,09,39,5.60
2011,10,24,09,40,5.60
2011,10,24,09,41,5.60
2011,10,24,09,42,5.60
2011,10,24,09,43,5.70
2011,10,24,09,44,5.70
2011,10,24,09,45,5.70
2011,10,24,09,46,5.80
2011,10,24,09,47,5.90
2011,10,24,09,48,6.00
2011,10,24,09,49,6.10
2011,10,24,09,50,6.20
2011,10,24,09,51,6.40
2011,10,24,09,52,6.50
2011,10,24,09,53,6.50
2011,10,24,09,54,6.60
2011,10,24,09,55,6.60
2011,10,24,09,56,6.60
2011,10,24,09,57,6.60
2011,10,24,09,58,6.60
2011,10,24,09,59,6.60
2011,10,24,10,00,6.60
2011,10,24,10,01,6.60
2011,10,24,10,02,6.70
2011,10,24,10,03,6.70
2011,10,24,10,04,6.70
2011,10,24,10,05,6.70
2011,10,24,10,06,6.70
2011,10,24,10,07,6.70
2011,10,24,10,08,6.70
2011,10,24,10,09,6.80
2011,10,24,10,10,6.80
2011,10,24,10,11,6.80
2011,10,24,10,12,6.80
2011,10,24,10,13,6.90
2011,10,24,10,14,6.90
2011,10,24,10,15,7.00
2011,10,24,10,16,7.00
2011,10,24,10,17,7.10
2011,10,24,10,18,7.10
2011,10,24,10,19,7.20
2011,10,24,10,20,7.20
2011,10,24,10,21,7.20
2011,10,24,10,22,7.20
2011,10,24,10,23,7.20
2011,10,24,10,24,7.20
2011,10,24,10,25,7.20
2011,10,24,10,26,7.20
2011,10,24,10,27,7.20
2011,10,24,10,28,7.30
2011,10,24,10,29,7.30
2011,10,24,10,30,7.40
2011,10,24,10,31,7.50
2011,10,24,10,32,7.60
2011,10,24,10,33,7.70
2011,10,24,10,34,7.70
2011,10,24,10,35,7.80
2011,10,24,10,36,7.80
2011,10,24,10,37,7.80
2011,10,24,10,38,7.90
2011,10,24,10,39,7.90
2011,10,24,10,40,7.90
2011,10,24,10,41,8.00
2011,10,24,10,42,8.00
2011,10,24,10,43,8.00
2011,10,24,10,44,8.00
2011,10,24,10,45,8.00
2011,10,24,10,46,8.10
2011,10,24,10,47,8.10
2011,10,24,10,48,8.10
2011,10,24,10,49,8.10
2011,10,24,10,50,8.10
2011,10,24,10,51,8.10
2011,10,24,10,52,8.10
2011,10,24,10,53,8.10
2011,10,24,10,54,8.20
2011,10,24,10,55,8.20
2011,10,24,10,56,8.20
2011,10,24,10,57,8.20
2011,10,24,10,58,8.20
2011,10,24,10,59,8.30
2011,10,24,11,00,8.30
2011,10,24,11,01,8.30
2011,10,24,11,02,8.40
2011,10,24,11,03,8.40
2011,10,24,11,04,8.50
2011,10,24,11,05,8.50
2011,10,24,11,06,8.60
2011,10,24,11,07,8.60
2011,10,24,11,08,8.60
2011,10,24,11,09,8.60
2011,10,24,11,10,8.60
2011,10,24,11,11,8.70
2011,10,24,11,12,8.70
2011,10,24,11,13,8.80
2011,10,24,11,14,8.90
2011,10,24,11,15,9.00
2011,10,24,11,16,9.10
2011,10,24,11,17,9.20
2011,10,24,11,18,9.20
2011,10,24,11,19,9.20
2011,10,24,11,20,9.30
2011,10,24,11,21,9.40
2011,10,24,11,22,9.40
2011,10,24,11,23,9.50
2011,10,24,11,24,9.50
2011,10,24,11,25,9.60
2011,10,24,11,26,9.60
2011,10,24,11,27,9.70
2011,10,24,11,28,9.80
2011,10,24,11,29,9.80
2011,10,24,11,30,10.00
2011,10,24,11,31,10.10
2011,10,24,11,32,10.20
2011,10,24,11,33,10.20
2011,10,24,11,34,10.20
2011,10,24,11,35,10.20
2011,10,24,11,36,10.20
2011,10,24,11,37,10.30
2011,10,24,11,38,10.20
2011,10,24,11,39,10.30
2011,10,24,11,40,10.30
2011,10,24,11,41,10.30
2011,10,24,11,42,10.20
2011,10,24,11,43,10.20
2011,10,24,11,44,10.10
2011,10,24,11,45,10.00
2011,10,24,11,46,10.00
2011,10,24,11,47,9.90
2011,10,24,11,48,9.90
2011,10,24,11,49,9.90
2011,10,24,11,50,9.90
2011,10,24,11,51,9.90
2011,10,24,11,52,9.90
2011,10,24,11,53,9.90
2011,10,24,11,54,9.80
2011,10,24,11,55,9.80
2011,10,24,11,56,9.80
2011,10,24,11,57,9.90
2011,10,24,11,58,9.90
2011,10,24,11,59,9.90
2011,10,24,12,00,10.00
2011,10,24,12,01,10.00
2011,10,24,12,02,10.00
2011,10,24,12,03,10.00
2011,10,24,12,04,10.00
2011,10,24,12,05,10.00
2011,10,24,12,06,10.00
2011,10,24,12,07,10.00
2011,10,24,12,08,10.00
2011,10,24,12,09,10.00
2011,10,24,12,10,10.00
2011,10,24,12,11,10.00
2011,10,24,12,12,10.00
2011,10,24,12,13,9.90
2011,10,24,12,14,9.90
2011,10,24,12,15,9.90
2011,10,24,12,16,9.80
2011,10,24,12,17,9.80
2011,10,24,12,18,9.90
2011,10,24,12,19,9.90
2011,10,24,12,20,10.00
2011,10,24,12,21,10.00
2011,10,24,12,22,10.10
2011,10,24,12,23,10.10
2011,10,24,12,24,10.20
2011,10,24,12,25,10.20
2011,10,24,12,26,10.30
2011,10,24,12,27,10.30
2011,10,24,12,28,10.30
2011,10,24,12,29,10.40
2011,10,24,12,30,10.50
2011,10,24,12,31,10.60
2011,10,24,12,32,10.70
2011,10,24,12,33,10.80
2011,10,24,12,34,10.80
2011,10,24,12,35,10.90
2011,10,24,12,36,11.00
2011,10,24,12,37,11.00
2011,10,24,12,38,11.10
2011,10,24,12,39,11.20
2011,10,24,12,40,11.30
2011,10,24,12,41,11.40
2011,10,24,12,42,11.40
2011,10,24,12,43,11.50
2011,10,24,12,44,11.50
2011,10,24,12,45,11.60
2011,10,24,12,46,11.50
2011,10,24,12,47,11.50
2011,10,24,12,48,11.50
2011,10,24,12,49,11.60
2011,10,24,12,50,11.60
2011,10,24,12,51,11.60
2011,10,24,12,52,11.50
2011,10,24,12,53,11.50
2011,10,24,12,54,11.50
2011,10,24,12,55,11.50
2011,10,24,12,56,11.60
2011,10,24,12,57,11.60
2011,10,24,12,58,11.70
2011,10,24,12,59,11.80
2011,10,24,13,00,11.80
2011,10,24,13,01,11.80
2011,10,24,13,02,11.70
2011,10,24,13,03,11.70
2011,10,24,13,04,11.70
2011,10,24,13,05,11.60
2011,10,24,13,06,11.60
2011,10,24,13,07,11.60
2011,10,24,13,08,11.60
2011,10,24,13,09,11.60
2011,10,24,13,10,11.60
2011,10,24,13,11,11.50
2011,10,24,13,12,11.50
2011,10,24,13,13,11.50
2011,10,24,13,14,11.40
2011,10,24,13,15,11.40
2011,10,24,13,16,11.40
2011,10,24,13,17,11.50
2011,10,24,13,18,11.60
2011,10,24,13,19,11.60
2011,10,24,13,20,11.60
2011,10,24,13,21,11.70
2011,10,24,13,22,11.70
2011,10,24,13,23,11.70
2011,10,24,13,24,11.80
2011,10,24,13,25,11.80
2011,10,24,13,26,11.80
2011,10,24,13,27,11.80
2011,10,24,13,28,11.80
2011,10,24,13,29,11.70
2011,10,24,13,30,11.70
2011,10,24,13,31,11.80
2011,10,24,13,32,11.80
2011,10,24,13,33,11.80
2011,10,24,13,34,11.80
2011,10,24,13,35,11.80
2011,10,24,13,36,11.70
2011,10,24,13,37,11.70
2011,10,24,13,38,11.60
2011,10,24,13,39,11.60
2011,10,24,13,40,11.60
2011,10,24,13,41,11.60
2011,10,24,13,42,11.60
2011,10,24,13,43,11.70
2011,10,24,13,44,11.80
2011,10,24,13,45,11.80
2011,10,24,13,46,11.90
2011,10,24,13,47,11.90
2011,10,24,13,48,11.90
2011,10,24,13,49,12.00
2011,10,24,13,50,12.00
2011,10,24,13,51,12.00
2011,10,24,13,52,12.10
2011,10,24,13,53,12.00
2011,10,24,13,54,12.00
2011,10,24,13,55,11.90
2011,10,24,13,56,11.90
2011,10,24,13,57,11.80
2011,10,24,13,58,11.80
2011,10,24,13,59,11.80
2011,10,24,14,00,11.70
2011,10,24,14,01,11.80
2011,10,24,14,02,11.80
2011,10,24,14,03,11.80
2011,10,24,14,04,11.80
2011,10,24,14,05,11.80
2011,10,24,14,06,11.80
2011,10,24,14,07,11.70
2011,10,24,14,08,11.70
2011,10,24,14,09,11.70
2011,10,24,14,10,11.80
2011,10,24,14,11,11.80
2011,10,24,14,12,11.80
2011,10,24,14,13,11.70
2011,10,24,14,14,11.70
2011,10,24,14,15,11.70
2011,10,24,14,16,11.70
2011,10,24,14,17,11.70
2011,10,24,14,18,11.70
2011,10,24,14,19,11.70
2011,10,24,14,20,11.70
2011,10,24,14,21,11.70
2011,10,24,14,22,11.70
2011,10,24,14,23,11.70
2011,10,24,14,24,11.70
2011,10,24,14,25,11.80
2011,10,24,14,26,11.80
2011,10,24,14,27,11.80
2011,10,24,14,28,11.80
2011,10,24,14,29,11.80
2011,10,24,14,30,11.80
2011,10,24,14,31,11.80
2011,10,24,14,32,11.80
2011,10,24,14,33,11.80
2011,10,24,14,34,11.70
2011,10,24,14,35,11.70
2011,10,24,14,36,11.70
2011,10,24,14,37,11.70
2011,10,24,14,38,11.80
2011,10,24,14,39,11.80
2011,10,24,14,40,11.90
2011,10,24,14,41,11.90
2011,10,24,14,42,11.90
2011,10,24,14,43,11.90
2011,10,24,14,44,11.90
2011,10,24,14,45,11.80
2011,10,24,14,46,11.80
2011,10,24,14,47,11.70
2011,10,24,14,48,11.80
2011,10,24,14,49,11.80
2011,10,24,14,50,11.80
2011,10,24,14,51,11.80
2011,10,24,14,52,11.80
2011,10,24,14,53,11.80
2011,10,24,14,54,11.80
2011,10,24,14,55,11.80
2011,10,24,14,56,11.80
2011,10,24,14,57,11.80
2011,10,24,14,58,11.70
2011,10,24,14,59,11.70
2011,10,24,15,00,11.80
2011,10,24,15,01,11.80
2011,10,24,15,02,11.80
2011,10,24,15,03,11.80
2011,10,24,15,04,11.80
2011,10,24,15,05,11.80
2011,10,24,15,06,11.80
2011,10,24,15,07,11.80
2011,10,24,15,08,11.80
2011,10,24,15,09,11.80
2011,10,24,15,10,11.90
2011,10,24,15,11,11.90
2011,10,24,15,12,11.90
2011,10,24,15,13,11.90
2011,10,24,15,14,11.90
2011,10,24,15,15,11.90
2011,10,24,15,16,11.90
2011,10,24,15,17,11.90
2011,10,24,15,18,11.90
2011,10,24,15,19,11.90
2011,10,24,15,20,11.90
2011,10,24,15,21,11.80
2011,10,24,15,22,11.90
2011,10,24,15,23,11.90
2011,10,24,15,24,11.90
2011,10,24,15,25,11.90
2011,10,24,15,26,12.00
2011,10,24,15,27,12.00
2011,10,24,15,28,11.90
2011,10,24,15,29,12.00
2011,10,24,15,30,12.00
2011,10,24,15,31,12.00
2011,10,24,15,32,12.00
2011,10,24,15,33,12.00
2011,10,24,15,34,12.10
2011,10,24,15,35,12.00
2011,10,24,15,36,12.00
2011,10,24,15,37,12.00
2011,10,24,15,38,12.00
2011,10,24,15,39,12.10
2011,10,24,15,40,12.00
2011,10,24,15,41,12.00
2011,10,24,15,42,12.10
2011,10,24,15,43,12.00
2011,10,24,15,44,12.00
2011,10,24,15,45,12.00
2011,10,24,15,46,12.00
2011,10,24,15,47,12.00
2011,10,24,15,48,11.90
2011,10,24,15,49,11.90
2011,10,24,15,50,11.90
2011,10,24,15,51,12.00
2011,10,24,15,52,12.00
2011,10,24,15,53,12.00
2011,10,24,15,54,12.00
2011,10,24,15,55,12.00
2011,10,24,15,56,12.00
2011,10,24,15,57,12.00
2011,10,24,15,58,11.90
2011,10,24,15,59,11.90
2011,10,24,16,00,11.90
2011,10,24,16,01,11.90
2011,10,24,16,02,11.90
2011,10,24,16,03,11.90
2011,10,24,16,04,11.90
2011,10,24,16,05,11.90
2011,10,24,16,06,11.90
2011,10,24,16,07,11.90
2011,10,24,16,08,11.90
2011,10,24,16,09,11.90
2011,10,24,16,10,11.90
2011,10,24,16,11,11.90
2011,10,24,16,12,11.90
2011,10,24,16,13,11.80
2011,10,24,16,14,11.80
2011,10,24,16,15,11.80
2011,10,24,16,16,11.80
2011,10,24,16,17,11.80
2011,10,24,16,18,11.80
2011,10,24,16,19,11.80
2011,10,24,16,20,11.70
2011,10,24,16,21,11.70
2011,10,24,16,22,11.70
2011,10,24,16,23,11.70
2011,10,24,16,24,11.70
2011,10,24,16,25,11.70
2011,10,24,16,26,11.70
2011,10,24,16,27,11.70
2011,10,24,16,28,11.70
2011,10,24,16,29,11.70
2011,10,24,16,30,11.70
2011,10,24,16,31,11.70
2011,10,24,16,32,11.70
2011,10,24,16,33,11.70
2011,10,24,16,34,11.70
2011,10,24,16,35,11.70
2011,10,24,16,36,11.70
2011,10,24,16,37,11.70
2011,10,24,16,38,11.70
2011,10,24,16,39,11.70
2011,10,24,16,40,11.60
2011,10,24,16,41,11.60
2011,10,24,16,42,11.60
2011,10,24,16,43,11.60
2011,10,24,16,44,11.60
2011,10,24,16,45,11.60
2011,10,24,16,46,11.60
2011,10,24,16,47,11.60
2011,10,24,16,48,11.60
2011,10,24,16,49,11.60
2011,10,24,16,50,11.50
2011,10,24,16,51,11.50
2011,10,24,16,52,11.50
2011,10,24,16,53,11.40
2011,10,24,16,54,11.40
2011,10,24,16,55,11.40
2011,10,24,16,56,11.40
2011,10,24,16,57,11.30
2011,10,24,16,58,11.30
2011,10,24,16,59,11.30
2011,10,24,17,00,11.20
2011,10,24,17,01,11.20
2011,10,24,17,02,11.20
2011,10,24,17,03,11.10
2011,10,24,17,04,11.10
2011,10,24,17,05,11.10
2011,10,24,17,06,11.10
2011,10,24,17,07,11.00
2011,10,24,17,08,11.00
2011,10,24,17,09,11.00
2011,10,24,17,10,10.90
2011,10,24,17,11,10.90
2011,10,24,17,12,10.90
2011,10,24,17,13,10.90
2011,10,24,17,14,10.90
2011,10,24,17,15,10.80
2011,10,24,17,16,10.80
2011,10,24,17,17,10.80
2011,10,24,17,18,10.80
2011,10,24,17,19,10.80
2011,10,24,17,20,10.80
2011,10,24,17,21,10.70
2011,10,24,17,22,10.70
2011,10,24,17,23,10.70
2011,10,24,17,24,10.60
2011,10,24,17,25,10.60
2011,10,24,17,26,10.60
2011,10,24,17,27,10.50
2011,10,24,17,28,10.50
2011,10,24,17,29,10.50
2011,10,24,17,30,10.40
2011,10,24,17,31,10.40
2011,10,24,17,32,10.40
2011,10,24,17,33,10.30
2011,10,24,17,34,10.30
2011,10,24,17,35,10.30
2011,10,24,17,36,10.30
2011,10,24,17,37,10.30
2011,10,24,17,38,10.30
2011,10,24,17,39,10.30
2011,10,24,17,40,10.30
2011,10,24,17,41,10.20
2011,10,24,17,42,10.20
2011,10,24,17,43,10.10
2011,10,24,17,44,10.10
2011,10,24,17,45,10.10
2011,10,24,17,46,10.00
2011,10,24,17,47,10.00
2011,10,24,17,48,9.90
2011,10,24,17,49,9.90
2011,10,24,17,50,9.90